Location: ??????
(42.0089°N, 44.3281°E)
Time: 17:05:54
(UTC+00:00)

USA 267 - Pass Details

Date: 07 June 2022
Orbit: 1101 x 1106 km, 123.0° (Epoch: 28 June)

Event Time Altitude Azimuth Distance (km) Brightness Sun altitude
Rises 22:22:59 0° 116° (ESE) 3,909 6.1 -22.5°
Reaches altitude 10° 22:25:29 10° 113° (ESE) 2,954 5.5 -22.3°
Maximum altitude 22:31:53 62° 35° (NE) 1,226 3.7 -21.9°
Drops below altitude 10° 22:38:19 10° 316° (NW) 2,964 5.8 -21.4°
Sets 22:40:49 0° 314° (NW) 3,925 6.4 -21.2°
